Location: Albany
(35.0170°S, 117.8920°E)
Time: 17:05:14
(UTC+08:00)

Explorer 11/Cluster Stage 4 - Pass Details

Date: 27 January 2021
Orbit: 467 x 1257 km, 28.8° (Epoch: 02 March)

Event Time Altitude Azimuth Distance (km) Brightness Sun altitude
Rises 08:10:05 0° 293° (WNW) 3,824 9.6 32.5°
Reaches altitude 10° 08:13:13 10° 300° (WNW) 2,744 9.0 33.1°
Maximum altitude 08:19:18 40° 7° (N) 1,219 8.0 34.4°
Drops below altitude 10° 08:24:15 10° 76° (ENE) 2,218 10.2 35.4°
Sets 08:26:32 0° 83° (E) 3,021 10.6 35.9°
